BAW76 LIMJ-LFSB

Flight info

Callsign BAW76
Flight time 0h 53m
Altitude 18000
Route LAGEN1H LAGEN Q712 VOG M858 SRN/N0378F190 L615 DESIP/N0440F340 DCT ABESI N851 UTAVO DCT ELMUR T718 RIGVI DCT
Aircraft A319/M-SDE3FGIJ1KRWXY/LB1

Departure

Time 2026-05-06 11:10
Airport Genoa Cristoforo Colombo Airport (LIMJ)

Arrival

Time 2026-05-06 12:03
Airport EuroAirport Basel–Mulhouse–Freiburg (LFSB)
Time Latitude Longitude Altitude Speed Heading
2026-05-06 10:33 44.41538 8.84955 18 ft 0 kts 105°
2026-05-06 10:59 44.41542 8.84932 20 ft 4 kts 108°
2026-05-06 11:00 44.41553 8.84898 20 ft 4 kts 125°
2026-05-06 11:00 44.41572 8.84877 18 ft 3 kts 225°
2026-05-06 11:00 44.41574 8.84880 18 ft 0 kts 232°
2026-05-06 11:03 44.41573 8.84878 18 ft 1 kts 232°
2026-05-06 11:04 44.41565 8.84864 19 ft 3 kts 232°
2026-05-06 11:04 44.41549 8.84835 18 ft 5 kts 232°
2026-05-06 11:04 44.41525 8.84791 19 ft 7 kts 232°
2026-05-06 11:04 44.41491 8.84729 19 ft 9 kts 232°
2026-05-06 11:05 44.41445 8.84660 18 ft 10 kts 208°
2026-05-06 11:05 44.41397 8.84717 18 ft 12 kts 106°
2026-05-06 11:05 44.41375 8.84836 19 ft 14 kts 104°
2026-05-06 11:05 44.41349 8.84975 19 ft 16 kts 103°
2026-05-06 11:06 44.41320 8.85135 18 ft 18 kts 105°
2026-05-06 11:06 44.41284 8.85255 21 ft 10 kts 134°
2026-05-06 11:06 44.41222 8.85282 18 ft 9 kts 190°
2026-05-06 11:06 44.41152 8.85254 17 ft 12 kts 193°
2026-05-06 11:07 44.41069 8.85216 14 ft 12 kts 219°
2026-05-06 11:07 44.41012 8.85192 13 ft 11 kts 147°
2026-05-06 11:07 44.40979 8.85287 14 ft 11 kts 105°
2026-05-06 11:07 44.40959 8.85392 17 ft 13 kts 104°
2026-05-06 11:08 44.40931 8.85534 18 ft 17 kts 105°
2026-05-06 11:08 44.40897 8.85704 22 ft 20 kts 105°
2026-05-06 11:08 44.40856 8.85901 21 ft 16 kts 104°
2026-05-06 11:08 44.40866 8.86008 22 ft 10 kts 64°
2026-05-06 11:09 44.40846 8.86066 22 ft 8 kts 178°
2026-05-06 11:09 44.40839 8.85993 23 ft 0 kts 283°
2026-05-06 11:09 44.40839 8.85990 21 ft 2 kts 283°
2026-05-06 11:09 44.40883 8.85745 22 ft 59 kts 285°
2026-05-06 11:10 44.41052 8.84895 17 ft 120 kts 285°
2026-05-06 11:10 44.41320 8.83549 104 ft 158 kts 285°
2026-05-06 11:10 44.41622 8.82069 670 ft 160 kts 283°
2026-05-06 11:10 44.41732 8.80524 1192 ft 161 kts 255°
2026-05-06 11:11 44.41168 8.79200 1719 ft 163 kts 220°
2026-05-06 11:11 44.40072 8.78615 2009 ft 181 kts 179°
2026-05-06 11:11 44.38859 8.79174 2526 ft 190 kts 155°
2026-05-06 11:11 44.37688 8.80027 3207 ft 191 kts 155°
2026-05-06 11:12 44.36497 8.80901 3895 ft 195 kts 155°
2026-05-06 11:12 44.35262 8.81648 4676 ft 193 kts 170°
2026-05-06 11:12 44.33933 8.81722 5421 ft 192 kts 184°
2026-05-06 11:12 44.32599 8.81633 6181 ft 192 kts 184°
2026-05-06 11:13 44.31252 8.81544 6901 ft 195 kts 184°
2026-05-06 11:13 44.29894 8.81449 7627 ft 197 kts 184°
2026-05-06 11:13 44.28516 8.81357 8358 ft 199 kts 184°
2026-05-06 11:13 44.27128 8.81265 9086 ft 200 kts 185°
2026-05-06 11:14 44.25727 8.81171 9798 ft 203 kts 185°
2026-05-06 11:14 44.24315 8.81078 10519 ft 203 kts 185°
2026-05-06 11:14 44.22897 8.80986 11242 ft 204 kts 186°
2026-05-06 11:14 44.21474 8.80890 11963 ft 205 kts 186°
2026-05-06 11:15 44.20046 8.80793 12683 ft 206 kts 187°
2026-05-06 11:15 44.18612 8.80698 13366 ft 207 kts 187°
2026-05-06 11:15 44.17164 8.80602 14041 ft 209 kts 187°
2026-05-06 11:15 44.15704 8.80496 14708 ft 210 kts 191°
2026-05-06 11:16 44.14382 8.79780 15295 ft 206 kts 222°
2026-05-06 11:16 44.13597 8.78077 15689 ft 225 kts 254°
2026-05-06 11:16 44.13537 8.75762 15885 ft 253 kts 266°
2026-05-06 11:16 44.13621 8.73238 16281 ft 266 kts 268°
2026-05-06 11:17 44.13743 8.70638 16903 ft 273 kts 271°
2026-05-06 11:17 44.14304 8.68064 17553 ft 287 kts 290°
2026-05-06 11:17 44.15537 8.65770 17821 ft 313 kts 310°
2026-05-06 11:17 44.17491 8.64073 17890 ft 349 kts 328°
2026-05-06 11:18 44.19768 8.62591 17885 ft 373 kts 329°
2026-05-06 11:18 44.22188 8.61029 17889 ft 391 kts 329°
2026-05-06 11:18 44.24677 8.59432 17887 ft 396 kts 329°
2026-05-06 11:18 44.27187 8.57817 17888 ft 397 kts 329°
2026-05-06 11:19 44.29696 8.56190 17887 ft 398 kts 329°
2026-05-06 11:19 44.32201 8.54554 17888 ft 398 kts 328°
2026-05-06 11:19 44.34758 8.53032 17884 ft 403 kts 336°
2026-05-06 11:19 44.37526 8.52220 17889 ft 412 kts 349°
2026-05-06 11:20 44.40409 8.52294 17886 ft 419 kts
2026-05-06 11:20 44.43251 8.53292 17886 ft 425 kts 18°
2026-05-06 11:20 44.45900 8.55144 17883 ft 427 kts 29°
2026-05-06 11:20 44.48462 8.57254 17880 ft 427 kts 29°
2026-05-06 11:21 44.51023 8.59367 17882 ft 427 kts 29°
2026-05-06 11:21 44.53588 8.61483 17889 ft 428 kts 29°
2026-05-06 11:21 44.56150 8.63598 17890 ft 427 kts 29°
2026-05-06 11:21 44.58674 8.65685 17889 ft 427 kts 30°
2026-05-06 11:22 44.61265 8.67827 17891 ft 427 kts 29°
2026-05-06 11:22 44.63828 8.69937 17894 ft 427 kts 29°
2026-05-06 11:22 44.66393 8.72044 17892 ft 427 kts 29°
2026-05-06 11:22 44.68922 8.74125 17897 ft 427 kts 29°
2026-05-06 11:23 44.71485 8.76238 17900 ft 427 kts 29°
2026-05-06 11:23 44.74044 8.78355 17902 ft 426 kts 30°
2026-05-06 11:23 44.76629 8.80497 17898 ft 426 kts 30°
2026-05-06 11:23 44.79184 8.82616 17898 ft 425 kts 30°
2026-05-06 11:24 44.81734 8.84727 17896 ft 425 kts 30°
2026-05-06 11:24 44.84286 8.86843 17898 ft 425 kts 30°
2026-05-06 11:24 44.86800 8.88936 17899 ft 425 kts 30°
2026-05-06 11:24 44.89344 8.91061 17894 ft 425 kts 30°
2026-05-06 11:25 44.91885 8.93185 17893 ft 425 kts 30°
2026-05-06 11:25 44.94442 8.95276 17891 ft 425 kts 26°
2026-05-06 11:25 44.97158 8.96882 17892 ft 423 kts 16°
2026-05-06 11:25 45.00049 8.97843 17890 ft 420 kts
2026-05-06 11:26 45.02947 8.98489 17920 ft 428 kts
2026-05-06 11:26 45.05936 8.99156 18045 ft 442 kts
2026-05-06 11:26 45.09021 8.99850 18171 ft 455 kts
2026-05-06 11:26 45.12191 9.00564 18298 ft 467 kts
2026-05-06 11:27 45.15437 9.01297 18424 ft 478 kts
2026-05-06 11:27 45.18754 9.02049 18554 ft 487 kts
2026-05-06 11:27 45.22117 9.02818 18824 ft 491 kts
2026-05-06 11:27 45.25452 9.03584 19158 ft 493 kts
2026-05-06 11:28 45.28845 9.04364 19455 ft 496 kts
2026-05-06 11:28 45.32264 9.05149 19776 ft 499 kts
2026-05-06 11:28 45.35744 9.05948 20089 ft 501 kts
2026-05-06 11:28 45.39176 9.06735 20369 ft 503 kts
2026-05-06 11:29 45.42643 9.07527 20630 ft 506 kts
2026-05-06 11:29 45.46123 9.08323 20909 ft 507 kts
2026-05-06 11:29 45.49616 9.09126 21165 ft 510 kts
2026-05-06 11:29 45.53118 9.09936 21452 ft 511 kts
2026-05-06 11:30 45.56622 9.10750 21784 ft 510 kts
2026-05-06 11:30 45.60128 9.11561 22134 ft 510 kts
2026-05-06 11:30 45.63637 9.12253 22474 ft 508 kts
2026-05-06 11:30 45.67148 9.12175 22804 ft 503 kts 350°
2026-05-06 11:31 45.70619 9.11613 23162 ft 502 kts 349°
2026-05-06 11:31 45.74083 9.11052 23554 ft 501 kts 349°
2026-05-06 11:31 45.77544 9.10501 23957 ft 500 kts 349°
2026-05-06 11:31 45.80997 9.09953 24369 ft 499 kts 349°
2026-05-06 11:32 45.84445 9.09403 24788 ft 498 kts 349°
2026-05-06 11:32 45.87885 9.08851 25177 ft 498 kts 349°
2026-05-06 11:32 45.91326 9.08295 25584 ft 497 kts 348°
2026-05-06 11:32 45.94761 9.07740 25959 ft 497 kts 348°
2026-05-06 11:33 45.98186 9.07184 26357 ft 496 kts 348°
2026-05-06 11:33 46.01610 9.06625 26716 ft 495 kts 348°
2026-05-06 11:33 46.05037 9.06065 27080 ft 496 kts 348°
2026-05-06 11:33 46.08458 9.05505 27510 ft 494 kts 348°
2026-05-06 11:34 46.11873 9.04947 27938 ft 493 kts 348°
2026-05-06 11:34 46.15281 9.04392 28368 ft 493 kts 348°
2026-05-06 11:34 46.18692 9.03856 28807 ft 493 kts 348°
2026-05-06 11:34 46.22110 9.03374 29223 ft 493 kts 349°
2026-05-06 11:35 46.25522 9.02930 29636 ft 493 kts 349°
2026-05-06 11:35 46.28941 9.02504 30090 ft 492 kts 349°
2026-05-06 11:35 46.32350 9.02078 30537 ft 491 kts 349°
2026-05-06 11:35 46.35749 9.01641 30932 ft 491 kts 349°
2026-05-06 11:36 46.39154 9.01193 31279 ft 491 kts 348°
2026-05-06 11:36 46.42555 9.00736 31635 ft 491 kts 348°
2026-05-06 11:36 46.45955 9.00271 32017 ft 491 kts 348°
2026-05-06 11:36 46.49359 8.99808 32356 ft 491 kts 348°
2026-05-06 11:37 46.52757 8.99344 32761 ft 491 kts 348°
2026-05-06 11:37 46.56103 8.98885 33198 ft 490 kts 348°
2026-05-06 11:37 46.59547 8.98416 33577 ft 490 kts 348°
2026-05-06 11:37 46.62942 8.97960 33825 ft 490 kts 348°
2026-05-06 11:38 46.65187 8.97661 33857 ft 489 kts 347°
2026-05-06 11:38 46.73069 8.96602 33858 ft 489 kts 348°
2026-05-06 11:39 46.79841 8.95680 33861 ft 489 kts 348°
2026-05-06 11:39 46.85511 8.94909 33859 ft 488 kts 348°
2026-05-06 11:40 46.92274 8.93980 33863 ft 488 kts 347°
2026-05-06 11:40 46.99033 8.93045 33855 ft 487 kts 348°
2026-05-06 11:41 47.05780 8.92121 33851 ft 487 kts 348°
2026-05-06 11:41 47.12453 8.91062 33848 ft 481 kts 342°
2026-05-06 11:42 47.18680 8.88037 33834 ft 464 kts 325°
2026-05-06 11:42 47.24199 8.83320 33809 ft 459 kts 321°
2026-05-06 11:42 47.26944 8.80904 33245 ft 462 kts 321°
2026-05-06 11:43 47.29714 8.78470 32610 ft 463 kts 321°
2026-05-06 11:43 47.32475 8.76051 32033 ft 462 kts 321°
2026-05-06 11:43 47.35267 8.73598 31428 ft 460 kts 322°
2026-05-06 11:44 47.40693 8.68810 30280 ft 455 kts 322°
2026-05-06 11:44 47.43406 8.66409 29701 ft 453 kts 322°
2026-05-06 11:44 47.46100 8.64029 29122 ft 450 kts 322°
2026-05-06 11:44 47.48778 8.61662 28544 ft 447 kts 323°
2026-05-06 11:45 47.51436 8.59312 27970 ft 445 kts 323°
2026-05-06 11:45 47.54084 8.56969 27402 ft 441 kts 323°
2026-05-06 11:45 47.56711 8.54639 26843 ft 438 kts 324°
2026-05-06 11:45 47.59314 8.52322 26280 ft 435 kts 324°
2026-05-06 11:46 47.61896 8.50019 25740 ft 432 kts 324°
2026-05-06 11:46 47.64459 8.47729 25194 ft 428 kts 324°
2026-05-06 11:46 47.66972 8.45400 24676 ft 422 kts 320°
2026-05-06 11:46 47.69193 8.42625 24177 ft 414 kts 310°
2026-05-06 11:47 47.71028 8.39400 23809 ft 403 kts 301°
2026-05-06 11:47 47.72617 8.36058 23695 ft 391 kts 301°
2026-05-06 11:47 47.74188 8.32793 23295 ft 387 kts 301°
2026-05-06 11:47 47.75751 8.29556 22854 ft 384 kts 302°
2026-05-06 11:48 47.77299 8.26350 22427 ft 380 kts 302°
2026-05-06 11:48 47.78834 8.23168 21994 ft 377 kts 302°
2026-05-06 11:48 47.80354 8.20002 21552 ft 374 kts 302°
2026-05-06 11:48 47.81859 8.16863 21102 ft 372 kts 302°
2026-05-06 11:49 47.83355 8.13739 20647 ft 369 kts 302°
2026-05-06 11:49 47.84841 8.10635 20195 ft 367 kts 302°
2026-05-06 11:49 47.86315 8.07550 19722 ft 365 kts 302°
2026-05-06 11:49 47.87782 8.04474 19253 ft 363 kts 302°
2026-05-06 11:50 47.89238 8.01416 18770 ft 361 kts 302°
2026-05-06 11:50 47.90686 7.98371 18290 ft 359 kts 302°
2026-05-06 11:50 47.92119 7.95352 17810 ft 356 kts 302°
2026-05-06 11:50 47.93541 7.92349 17329 ft 354 kts 302°
2026-05-06 11:51 47.94959 7.89351 16842 ft 352 kts 302°
2026-05-06 11:51 47.96365 7.86378 16367 ft 350 kts 302°
2026-05-06 11:51 47.97763 7.83418 15889 ft 348 kts 302°
2026-05-06 11:51 47.99153 7.80466 15399 ft 347 kts 302°
2026-05-06 11:52 48.00537 7.77520 14924 ft 346 kts 302°
2026-05-06 11:52 48.01912 7.74585 14443 ft 344 kts 302°
2026-05-06 11:52 48.03282 7.71667 13965 ft 342 kts 302°
2026-05-06 11:52 48.04643 7.68765 13488 ft 340 kts 302°
2026-05-06 11:53 48.05996 7.65876 12911 ft 340 kts 302°
2026-05-06 11:53 48.07357 7.62976 12318 ft 341 kts 303°
2026-05-06 11:53 48.08685 7.60035 11711 ft 340 kts 296°
2026-05-06 11:53 48.09428 7.56729 11151 ft 334 kts 275°
2026-05-06 11:54 48.09324 7.53307 10584 ft 329 kts 255°
2026-05-06 11:54 48.08415 7.50211 10108 ft 323 kts 234°
2026-05-06 11:54 48.06891 7.47876 9975 ft 308 kts 215°
2026-05-06 11:54 48.05029 7.46456 9844 ft 296 kts 199°
2026-05-06 11:55 48.03106 7.45518 9684 ft 286 kts 198°
2026-05-06 11:55 48.01249 7.44625 9549 ft 273 kts 198°
2026-05-06 11:55 47.99480 7.43834 9353 ft 259 kts 197°
2026-05-06 11:55 47.97765 7.43104 8909 ft 255 kts 196°
2026-05-06 11:56 47.96057 7.42384 8340 ft 255 kts 196°
2026-05-06 11:56 47.94349 7.41661 7862 ft 255 kts 196°
2026-05-06 11:56 47.92650 7.40941 7499 ft 254 kts 196°
2026-05-06 11:56 47.90954 7.40219 7121 ft 251 kts 196°
2026-05-06 11:57 47.89284 7.39508 6589 ft 249 kts 196°
2026-05-06 11:57 47.87618 7.38796 6053 ft 249 kts 196°
2026-05-06 11:57 47.85965 7.38087 5539 ft 246 kts 197°
2026-05-06 11:57 47.84331 7.37391 5092 ft 241 kts 196°
2026-05-06 11:58 47.82740 7.37001 4924 ft 225 kts 179°
2026-05-06 11:58 47.81243 7.37386 4814 ft 212 kts 160°
2026-05-06 11:58 47.79949 7.38250 4712 ft 199 kts 155°
2026-05-06 11:58 47.78709 7.39130 4531 ft 196 kts 154°
2026-05-06 11:59 47.77478 7.40000 4238 ft 195 kts 154°
2026-05-06 11:59 47.76259 7.40857 3982 ft 193 kts 155°
2026-05-06 11:59 47.75090 7.41676 3732 ft 179 kts 155°
2026-05-06 11:59 47.73991 7.42448 3512 ft 172 kts 155°
2026-05-06 12:00 47.72911 7.43203 3278 ft 170 kts 155°
2026-05-06 12:00 47.71842 7.43951 3053 ft 170 kts 155°
2026-05-06 12:00 47.70778 7.44696 2829 ft 168 kts 155°
2026-05-06 12:00 47.69719 7.45436 2602 ft 167 kts 156°
2026-05-06 12:01 47.68665 7.46172 2384 ft 168 kts 155°
2026-05-06 12:01 47.67659 7.46876 2158 ft 150 kts 156°
2026-05-06 12:01 47.66749 7.47513 1973 ft 140 kts 157°
2026-05-06 12:01 47.65878 7.48120 1790 ft 137 kts 157°
2026-05-06 12:02 47.65023 7.48712 1618 ft 135 kts 157°
2026-05-06 12:02 47.64176 7.49307 1431 ft 134 kts 157°
2026-05-06 12:02 47.63332 7.49889 1254 ft 133 kts 157°
2026-05-06 12:02 47.62495 7.50482 1077 ft 133 kts 156°
2026-05-06 12:03 47.61659 7.51068 911 ft 133 kts 156°
2026-05-06 12:03 47.60887 7.51601 880 ft 102 kts 154°
2026-05-06 12:03 47.60393 7.51945 882 ft 66 kts 155°
2026-05-06 12:03 47.60146 7.52131 890 ft 24 kts 136°
2026-05-06 12:04 47.60139 7.52275 890 ft 10 kts 73°
2026-05-06 12:04 47.60151 7.52319 890 ft 0 kts 58°
2026-05-06 12:05 47.60153 7.52324 890 ft 3 kts 58°
2026-05-06 12:05 47.60175 7.52384 890 ft 9 kts 63°
2026-05-06 12:05 47.60189 7.52461 890 ft 7 kts 102°
2026-05-06 12:06 47.60147 7.52508 890 ft 9 kts 154°
2026-05-06 12:06 47.60084 7.52552 890 ft 10 kts 154°
2026-05-06 12:06 47.60030 7.52591 890 ft 8 kts 155°
2026-05-06 12:06 47.59989 7.52617 890 ft 5 kts 156°
2026-05-06 12:07 47.59962 7.52635 890 ft 3 kts 155°
2026-05-06 12:07 47.59945 7.52646 890 ft 3 kts 154°
2026-05-06 12:07 47.59923 7.52662 890 ft 4 kts 154°
2026-05-06 12:07 47.59901 7.52678 890 ft 4 kts 154°
2026-05-06 12:08 47.59886 7.52699 890 ft 2 kts 112°
2026-05-06 12:08 47.59889 7.52711 890 ft 1 kts 72°
2026-05-06 12:08 47.59895 7.52729 890 ft 3 kts 65°
2026-05-06 12:08 47.59897 7.52747 890 ft 1 kts 89°
2026-05-06 12:09 47.59893 7.52759 890 ft 1 kts 115°
2026-05-06 12:09 47.59889 7.52773 890 ft 1 kts 115°
2026-05-06 12:09 47.59888 7.52776 890 ft 0 kts 115°